Flag for Norway Weather past 2 weeks in Svolvær, Norway

Now
55 °F

Passing clouds.


Feels Like: 55 °F
Forecast: 50 / 53 °F
Wind: 5 mph from South

Location: Svolvaer / Helle

Current Time: Jul 1, 2015 at 3:16:37 PM

Latest Report: Jul 1, 2015 at 2:50 PM


Visibility: N/A

Pressure: 30.21 "Hg

Humidity: 44%

Dew point: 34 °F

Location of SvolværLocation

Historic Weather in Svolvær — Graph

°F

Svolvær temperature yesterday

Maximum temperature yesterday: 57 °F (at 3:50 PM)
Minimum temperature yesterday: 46 °F (at 4:20 AM)
Average temperature yesterday: 52 °F

Past Weeks' High & Low Weather Summary

 TemperatureHumidityPressure
High63 °F (Jun 23, 3:50 PM)100% (Jun 24, 8:50 AM)30.21 "Hg (Jun 24, 8:50 AM)
Low45 °F (Jun 16, 8:50 PM)42% (Jun 18, 12:50 PM)29.68 "Hg (Jun 25, 5:50 AM)
Average51 °F68%29.89 "Hg
* Reported Jun 16 1:50 PM — Jul 1 1:50 PM, Svolvær, Weather by CustomWeather, © 2015

Note: Actual official high and low records may vary slightly from our data, if they occured in-between our weather recording intervals... More about our weather records

Advertising

Svolvær weather history for previous 24 hours

 ConditionsComfort  
Time TempWeatherWind HumidityBarometerVisibility
1:50 PM
Wed, Jul 1
55 °FPassing clouds.5 mph51%30.21 "HgN/A
12:50 PM54 °FPassing clouds.6 mph51%30.21 "HgN/A
11:50 AM54 °FScattered clouds.5 mph51%30.21 "HgN/A
10:50 AM54 °FScattered clouds.2 mph51%30.21 "HgN/A
9:50 AM52 °FScattered clouds.2 mph54%30.21 "HgN/A
8:50 AM50 °FPartly sunny.6 mph58%30.21 "HgN/A
7:50 AM50 °FPartly sunny.7 mph58%30.21 "HgN/A
6:50 AM48 °FPartly sunny.3 mph62%30.21 "HgN/A
5:50 AM46 °FPartly sunny.3 mph76%30.21 "HgN/A
4:50 AM46 °FScattered clouds.5 mph76%30.18 "HgN/A
4:20 AM46 °FScattered clouds.5 mph76%30.18 "HgN/A
8:50 PM
Tue, Jun 30
50 °FPassing clouds.10 mph67%30.15 "HgN/A
7:50 PM52 °FPassing clouds.12 mph62%30.12 "HgN/A
6:50 PM54 °FPassing clouds.10 mph54%30.12 "HgN/A
5:50 PM54 °FPassing clouds.12 mph54%30.12 "HgN/A
4:50 PM55 °FPassing clouds.9 mph51%30.09 "HgN/A
3:50 PM57 °FPassing clouds.10 mph51%30.09 "HgN/A
Weather by CustomWeather, © 2015

See weather overviewHow to use our weather pages